Location: Newark
(48.2308°N, 120.8549°W)
Time: 22:23:18
(UTC+00:00)

Transit 2A Rocket - Pass Details

Date: 31 May 2020
Orbit: 584 x 919 km, 66.7° (Epoch: 10 July)

Event Time Altitude Azimuth Distance (km) Brightness Sun altitude
Rises 08:54:29 0° 273° (W) 3,209 8.1 -18.8°
Reaches altitude 10° 08:57:34 10° 292° (WNW) 2,354 7.6 -18.6°
Maximum altitude 09:01:16 18° 335° (NNW) 1,915 7.7 -18.5°
Drops below altitude 10° 09:05:11 10° 18° (NNE) 2,503 8.9 -18.3°
Sets 09:08:36 0° 37° (NE) 3,494 9.7 -18.2°
